Other Surface Observations
Issued by NWS Charleston, SC

Home | Current Version | Previous Version | Text Only | Print | Product List | Glossary On
Versions: 1 2 3 4 5 6 7 8 9 10 11 12 13 14 15 16 17 18 19 20 21 22 23 24 25 26 27 28 29 30 31 32 33 34 35 36 37 38 39 40 41 42 43 44 45 46 47 48 49 50
000
SXUS52 KCHS 302225
OSOCHS

MARINE OBSERVATIONS
NATIONAL WEATHER SERVICE CHARLESTON SC
600 PM EDT TUE SEP 30 2014

...DOWNTOWN CHARLESTON AND HARBOR...

CITY           SKY/WX    TMP DP  RH WIND       PRES   REMARKS
WATERFRONT PRK   N/A     77 N/A N/A SE6         N/A
FORT JOHNSON   NOT AVBL

...LAKE MOULTRIE...

CITY           SKY/WX    TMP DP  RH WIND       PRES   REMARKS
PINOPOLIS        N/A     82  66  57 NW5       29.77F

...LAKE AND SUPPLEMENTAL COASTAL OBSERVATIONS...

STATION/POSITION TIME  TEMP    WIND        PRES    WAVE   SWELL
                       AIR SEA DIR/SP/G            HT/PER HT/PER/DIR
                 (UTC) (F)     (DEG/KT/KT) (MB)    (FT/S) (FT/S/D)
FORT PULASKI     2200   76      90/  7/  9 1011.0R
SAPELO ISLAND    NOT AVBL
UPR LAKE MARION  NOT AVBL
WINYAH BAY       2200   76     110/  3     1010.0S
LAKE MURRAY      2100   81     190/  5/  6 1010.5S
ACE BASIN NERRS  2200   79        CALM     1011.0S


...C-MAN AND BUOY OBSERVATIONS...

STATION/POSITION TIME  TEMP    WIND        PRES    WAVE   SWELL
                       AIR SEA DIR/SP/G            HT/PER HT/PER/DIR
                 (UTC) (F)     (DEG/KT/KT) (MB)    (FT/S) (FT/S/D)
BUOY 41004       2200   76 81   20/ 14/ 17 1009.7R   4/ 6   2/ 9
BUOY 41008       2200   75 79   20/ 10/ 14 1010.6R   4/ 6   3/ 70/ 6
FOLLY BEACH CMAN 2200   76     120/  3/  4 1011.0R
CAPERS NS BUOY   2100   77     100/  6/  8   N/A
FRIPP NS BUOY    NOT AVBL
5E ST. MARYS GA  2200      79                N/A     4/ 6
FRYING PAN BUOY  NOT AVBL
BUOY 41025       2200   74     350/ 17/ 19 1009.4R   4/ 6   2/ 50/ 7
CAPE LOOKOUT NC  2200   74      30/ 13/ 15 1010.0R
BUOY 41002       2144   76 81   90/ 14/ 17 1007.1S   3/ 7   2/ 70/ 7
BUOY 41010       2200   80 84  310/ 12/ 14 1009.1S   3/ 5   2/ 80/ 8
BUOY 41012       NOT AVBL
ST AUGUSTINE FL  2200   76      10/ 18/ 19 1010.6S


$$



USA.gov is the U.S. government's official web portal to all federal, state and local government web resources and services.